Wind_Speed
4 4 5 5 6 6 4 3 4 6 6 6 6 5 5 6 6 7 8 8 8 7 7 7 6 6 6 5 6 6 6 5 4 5 4 4 3 3 3 3 3 3 3 3 2 3 3 4 4
5 4 4 4 5 4 1 4 6 7 9 7 7 6 6 7 7 7 8 8 8 8 7 7 7 7 6 6 6 6 5 5 5 4 4 4 3 3 3 3 3 3 3 2 2 3 4 4 4
6 5 3 2 2 2 3 6 8 7 9 8 7 7 8 7 7 7 8 8 8 8 7 7 7 6 6 6 6 6 6 5 4 4 4 3 3 3 3 3 3 3 3 2 2 4 4 4 5
7 6 4 3 3 3 6 9 8 8 8 9 8 8 9 8 8 8 8 9 9 8 8 7 7 6 6 7 6 6 5 4 4 4 4 3 3 3 3 3 3 3 3 3 3 3 4 3 4
7 5 4 3 5 6 10 11 9 10 9 8 9 9 10 8 8 9 9 9 10 9 8 8 7 6 7 7 6 6 5 5 4 4 4 4 4 4 4 4 4 4 3 3 3 3 4 4 3
9 7 5 5 6 10 12 13 11 10 10 9 10 10 11 9 8 9 10 10 11 10 9 8 8 7 7 7 6 6 6 6 5 5 5 4 4 4 4 4 4 4 4 3 3 4 4 4 4
11 9 8 7 9 13 13 14 13 11 12 11 11 11 12 11 10 10 10 11 11 10 9 8 7 8 8 7 7 6 7 6 6 6 5 5 5 5 5 5 5 4 5 4 5 5 6 6 5
13 13 11 9 9 14 15 14 14 12 13 13 13 12 12 12 11 11 11 11 11 11 9 8 8 8 8 8 8 7 7 7 6 5 6 6 6 6 6 6 6 5 5 5 5 6 7 7 6
13 14 12 9 11 15 17 16 15 14 14 14 14 13 13 13 12 11 12 12 11 10 10 9 9 9 9 8 8 8 7 7 7 6 6 7 7 7 7 6 6 6 5 5 6 6 7 8 8
15 14 12 11 13 17 18 18 17 16 15 16 16 14 14 12 12 12 13 12 11 11 10 10 9 9 10 9 9 9 9 9 8 7 7 7 7 6 6 6 6 6 6 6 6 7 7 9 9
16 15 14 15 18 20 19 19 18 17 16 16 16 14 14 13 13 13 13 13 12 12 11 11 11 10 10 10 10 10 10 10 10 9 9 9 8 7 7 6 6 6 7 7 7 7 8 9 9
17 16 16 18 19 21 20 19 19 18 17 17 17 16 14 14 13 14 14 13 12 12 12 12 12 12 11 11 10 10 10 10 10 10 10 10 9 8 8 8 8 8 8 7 7 7 7 8 9
18 17 19 19 20 20 19 20 20 19 18 18 16 15 15 15 15 15 15 14 13 13 13 13 13 13 13 12 11 11 11 11 10 10 10 10 9 9 10 9 9 8 7 7 8 7 7 8 8
18 19 19 20 20 19 20 20 20 18 19 19 17 16 14 14 15 15 15 15 15 14 13 14 14 14 14 13 13 12 13 12 11 10 10 10 9 9 10 10 9 9 8 8 9 8 8 8 8
19 19 19 18 19 19 20 19 18 19 19 18 18 19 16 15 15 15 15 15 15 15 14 14 14 15 15 14 14 13 14 13 12 11 10 10 10 10 10 11 10 10 9 9 9 8 8 8 7
19 19 18 17 18 19 20 19 18 19 20 18 18 19 19 19 16 15 15 15 15 15 14 14 14 14 14 14 14 14 14 14 13 12 11 10 10 10 11 11 11 10 10 10 9 8 8 8 7
18 17 17 18 17 18 20 20 20 19 21 21 20 20 20 20 18 17 17 16 16 15 15 16 15 14 14 14 14 15 15 14 14 13 11 11 11 11 12 12 11 11 10 10 9 9 9 9 9
17 17 17 18 17 18 20 20 20 21 21 20 20 21 21 21 19 18 19 18 18 17 16 16 15 15 15 15 15 16 15 15 15 14 13 12 12 12 12 12 11 11 11 10 10 10 10 10 10
17 16 16 17 17 19 20 21 21 21 21 20 21 20 22 21 19 19 20 20 20 19 18 17 17 16 16 16 16 16 16 16 16 14 14 13 13 13 12 12 12 12 12 11 11 11 12 12 12
19 18 16 16 19 19 20 21 21 23 22 20 21 21 20 20 19 20 20 20 20 19 18 18 17 16 16 16 16 16 16 16 15 14 14 14 14 14 13 13 13 13 13 13 13 13 12 13 13
21 20 18 18 19 21 21 22 21 22 22 22 22 22 21 22 21 20 20 20 20 19 19 19 18 17 17 16 16 17 17 17 17 16 15 15 15 14 14 14 14 14 14 14 13 13 13 14 14
22 21 20 18 18 20 21 23 22 22 23 23 23 23 23 22 22 21 20 20 20 20 19 19 18 18 17 17 17 18 18 18 17 18 17 16 16 15 14 14 15 15 15 15 15 15 16 15 15
21 21 21 20 19 21 21 22 22 22 24 23 23 24 23 23 22 21 20 21 21 20 19 19 19 19 19 18 18 18 19 19 19 19 18 18 17 16 16 16 16 16 16 16 16 16 17 16 16
21 21 21 21 21 23 21 21 23 23 24 22 23 23 23 24 23 22 22 22 21 21 20 19 19 20 19 19 19 19 19 20 19 19 19 19 18 17 17 17 17 16 17 17 17 17 17 17 17
22 21 20 21 21 21 18 19 22 21 22 23 23 23 23 24 24 22 22 21 21 21 21 20 20 20 20 20 19 20 20 20 20 19 19 19 18 17 18 18 17 17 17 17 18 18 17 17 17
22 22 20 19 19 19 19 21 21 20 21 23 24 25 24 23 24 23 22 22 21 20 20 20 20 20 20 20 20 20 20 20 20 20 20 20 19 19 19 19 19 18 17 17 17 18 17 17 18
22 22 20 20 19 20 20 21 23 22 23 23 23 23 24 24 23 22 21 21 21 20 20 20 20 20 20 21 21 21 21 21 21 21 21 20 20 20 20 21 20 20 19 18 18 18 18 18 18
23 21 21 23 22 22 21 20 20 22 23 22 22 23 23 22 21 21 21 21 21 20 21 20 20 20 20 21 21 21 22 22 22 22 22 21 21 22 22 21 21 21 20 19 19 19 19 19 18
23 24 24 23 23 23 22 20 21 22 22 22 22 22 21 19 20 21 20 21 22 21 21 20 21 21 21 21 22 22 23 23 23 23 22 22 22 22 22 21 21 21 21 20 20 20 20 19 19
24 25 25 26 25 25 24 24 21 22 23 24 24 23 22 21 21 21 21 21 21 22 21 21 21 22 22 22 23 24 24 23 23 23 23 23 23 22 22 22 22 22 22 21 21 21 21 20 20
Wind_Direction
145 131 116 102 84 66 43 338 291 293 298 304 301 303 305 308 314 316 327 328 328 332 341 339 337 339 332 327 325 318 310 299 297 299 296 290 281 278 274 269 266 266 261 239 221 215 202 197 196
165 162 144 103 71 35 346 271 278 293 296 299 302 305 304 306 313 317 326 329 330 334 339 341 342 338 334 332 326 322 314 298 299 303 298 290 289 280 275 267 262 259 256 223 203 196 197 192 188
186 185 158 123 61 323 274 267 278 284 293 302 305 300 299 306 310 316 324 327 331 336 340 340 340 338 335 333 331 324 318 310 303 306 304 299 302 302 279 266 263 262 256 237 220 216 207 200 191
202 198 187 175 237 264 263 262 274 286 289 297 299 294 294 300 307 314 319 324 326 333 335 338 335 339 337 336 331 322 320 315 302 313 309 306 307 304 286 273 265 264 260 246 239 230 222 217 206
209 206 209 224 249 252 262 269 275 283 288 293 296 298 293 300 306 310 314 320 321 329 332 333 328 332 335 337 335 323 318 310 302 303 306 304 296 295 290 277 264 259 255 252 251 234 228 214 216
219 219 204 234 259 261 263 270 277 279 281 291 295 298 295 302 304 307 310 315 318 321 324 324 322 326 326 328 333 328 317 311 310 308 308 294 295 282 289 277 274 267 259 252 241 235 232 229 228
226 229 209 219 251 262 267 270 267 272 281 286 291 295 295 305 307 304 306 310 314 315 318 319 321 323 323 322 323 322 316 313 307 307 306 304 300 280 280 278 275 268 260 254 241 238 242 243 238
229 229 219 211 240 262 267 267 266 266 272 275 280 284 292 302 304 301 302 306 310 310 314 314 315 315 318 321 321 316 310 314 311 302 298 298 296 284 280 277 273 269 262 264 253 247 249 245 243
235 235 230 217 235 257 265 266 266 264 268 274 276 280 288 298 299 300 302 303 306 311 313 311 312 313 313 316 319 318 313 314 312 302 295 295 297 295 288 282 277 273 272 272 263 259 256 253 248
237 236 235 234 237 247 256 261 263 264 266 270 275 283 290 294 295 298 302 303 303 306 308 308 309 310 312 313 313 314 312 313 315 312 304 303 301 301 296 294 288 283 285 282 273 260 257 256 254
238 238 237 240 243 245 250 256 261 263 266 269 275 278 282 289 291 295 300 298 298 301 305 308 309 308 310 310 308 308 309 309 307 311 312 310 308 308 304 298 295 288 290 288 285 275 266 262 261
243 239 240 241 244 248 251 255 258 259 264 268 270 276 278 286 288 292 296 291 292 296 299 301 305 305 304 303 304 305 305 309 305 302 309 308 309 308 302 304 299 290 288 288 288 288 284 276 268
244 244 246 245 246 251 253 255 261 258 255 259 264 273 280 280 285 286 288 291 290 293 295 298 300 300 299 297 299 301 302 306 304 302 303 303 304 302 301 303 304 300 298 298 294 294 292 293 279
243 245 246 247 248 252 254 255 261 262 259 263 269 271 276 280 285 284 284 288 289 289 291 294 296 297 297 294 295 297 299 301 302 299 297 298 302 302 305 304 303 298 296 296 292 289 289 290 285
244 246 248 249 254 256 258 257 262 264 263 264 269 273 276 279 279 280 283 283 284 285 287 290 294 294 294 293 293 294 293 298 300 299 295 292 297 298 299 300 298 295 291 290 288 285 285 284 283
248 248 251 252 253 257 259 256 264 266 266 268 268 273 277 277 274 273 279 281 280 282 286 289 292 292 293 294 293 293 292 296 299 298 292 290 294 295 293 296 293 291 290 288 288 286 288 286 281
248 251 253 252 250 254 258 258 261 267 271 270 270 274 275 273 272 272 273 275 277 280 283 286 291 290 290 290 291 291 290 292 299 297 292 290 292 293 290 293 292 289 287 283 284 285 287 288 284
244 249 250 250 251 255 258 258 263 265 271 271 271 274 275 274 269 270 271 274 276 277 280 282 286 288 288 288 289 288 287 289 295 295 290 290 289 289 289 294 293 290 287 282 280 283 286 288 287
241 245 251 255 251 255 258 257 261 266 269 269 271 273 274 272 268 268 268 270 274 276 277 278 281 285 286 287 286 286 287 287 291 291 290 291 289 285 282 288 293 291 286 279 278 281 286 287 286
237 238 242 249 252 251 253 254 259 266 269 270 270 272 272 268 265 265 269 271 273 273 274 274 276 279 283 285 283 284 287 286 287 288 290 290 287 282 277 279 286 287 285 282 278 277 279 281 284
238 239 238 241 250 254 259 259 259 262 268 269 270 269 269 269 269 269 269 272 274 273 274 273 273 276 279 281 280 283 286 287 288 286 286 287 284 282 281 279 282 282 282 282 280 278 279 282 281
241 243 242 241 248 254 262 265 262 261 266 268 269 269 268 269 268 270 269 270 271 273 273 270 269 272 275 277 279 282 285 286 286 286 284 285 282 280 282 282 280 281 283 283 284 284 283 281 278
242 242 245 245 248 249 251 262 264 261 263 267 272 271 271 271 270 269 270 270 270 271 270 269 269 271 272 275 279 282 285 285 285 285 282 282 277 276 279 281 281 282 284 285 285 284 286 281 278
242 243 244 247 249 251 250 255 261 262 268 269 272 270 269 271 272 271 268 266 267 268 268 268 270 271 270 273 276 280 282 282 282 282 281 280 276 277 278 280 281 282 285 286 284 284 285 282 280
240 242 245 249 251 257 258 255 260 263 265 268 270 267 267 270 271 267 263 265 265 266 267 268 268 269 269 270 272 277 279 279 279 280 280 278 276 276 279 279 279 282 285 285 286 284 282 284 282
242 241 243 249 256 259 256 253 258 262 263 266 268 268 268 267 269 267 264 264 265 266 268 269 268 268 267 268 271 275 277 278 278 279 278 276 275 276 277 278 278 280 283 285 285 285 285 284 284
239 238 238 243 248 255 255 255 253 258 263 262 266 271 269 269 269 268 266 262 262 266 268 269 269 269 266 267 270 273 276 277 276 277 276 273 273 274 275 276 276 277 279 282 283 284 286 285 283
240 239 234 233 238 246 255 258 259 262 262 264 265 269 267 267 267 266 263 261 262 266 267 268 268 269 268 268 269 272 274 274 274 274 273 273 274 273 274 275 275 276 277 281 282 283 285 284 282
238 236 234 235 240 247 253 256 257 258 259 263 265 268 264 265 266 266 262 262 263 264 266 267 267 269 271 270 271 272 273 272 273 272 272 272 272 270 270 272 272 276 278 280 281 283 285 286 285
240 238 236 236 238 241 248 255 255 258 261 266 264 264 265 263 263 264 264 263 265 265 266 267 268 268 269 270 271 271 272 271 272 272 270 270 269 267 268 270 272 275 278 279 280 283 284 285 285
Height
5890 5890 5891 5892 5892 5893 5893 5895 5893 5892 5890 5889 5888 5887 5886 5885 5885 5885 5882 5880 5880 5879 5878 5877 5876 5875 5874 5873 5872 5871 5870 5870 5869 5869 5869 5868 5868 5868 5868 5868 5868 5868 5868 5868 5869 5869 5869 5870 5870
5889 5890 5891 5891 5892 5893 5894 5893 5893 5891 5890 5889 5888 5887 5886 5884 5884 5883 5881 5880 5879 5878 5878 5876 5875 5874 5874 5873 5872 5871 5870 5869 5869 5869 5868 5868 5868 5867 5867 5867 5867 5868 5868 5868 5868 5868 5869 5869 5870
5888 5889 5890 5891 5893 5894 5894 5892 5892 5890 5889 5888 5888 5887 5885 5884 5884 5882 5881 5880 5879 5878 5877 5876 5875 5874 5873 5872 5871 5871 5870 5869 5869 5868 5868 5868 5867 5867 5867 5867 5867 5867 5867 5868 5868 5868 5868 5869 5870
5887 5888 5889 5891 5893 5894 5893 5891 5890 5889 5888 5887 5887 5886 5884 5884 5883 5882 5880 5879 5878 5877 5876 5875 5874 5874 5873 5872 5871 5870 5869 5869 5868 5868 5868 5867 5867 5867 5867 5867 5867 5867 5867 5868 5868 5868 5868 5869 5869
5885 5887 5888 5890 5892 5893 5892 5890 5889 5889 5887 5887 5886 5885 5883 5882 5882 5881 5879 5878 5877 5877 5876 5875 5874 5873 5872 5871 5871 5870 5869 5868 5868 5867 5867 5867 5867 5867 5866 5866 5866 5866 5867 5867 5868 5868 5868 5869 5870
5883 5885 5887 5890 5891 5892 5891 5889 5888 5888 5885 5885 5885 5884 5882 5881 5881 5880 5879 5878 5876 5876 5875 5874 5873 5872 5872 5871 5870 5870 5869 5868 5867 5866 5866 5866 5866 5866 5866 5866 5866 5866 5866 5867 5867 5867 5868 5869 5869
5882 5883 5885 5888 5890 5890 5889 5888 5887 5886 5885 5884 5884 5883 5881 5880 5879 5879 5878 5877 5876 5875 5875 5874 5873 5872 5871 5870 5870 5869 5868 5867 5866 5866 5866 5866 5865 5865 5865 5865 5865 5865 5866 5866 5866 5867 5867 5868 5869
5879 5881 5882 5885 5888 5888 5886 5885 5885 5885 5883 5883 5882 5882 5880 5879 5878 5878 5877 5876 5875 5874 5873 5873 5872 5871 5870 5870 5869 5868 5867 5867 5866 5865 5865 5865 5865 5864 5864 5864 5864 5864 5865 5865 5865 5866 5866 5867 5867
5876 5879 5880 5883 5885 5885 5884 5882 5882 5881 5881 5880 5880 5880 5879 5877 5876 5876 5876 5875 5874 5873 5872 5872 5871 5870 5870 5869 5868 5868 5867 5866 5866 5865 5864 5864 5864 5863 5863 5863 5863 5863 5864 5864 5864 5865 5865 5866 5866
5873 5875 5877 5880 5881 5882 5880 5879 5879 5879 5878 5878 5877 5877 5876 5875 5874 5874 5874 5873 5872 5872 5871 5870 5870 5869 5868 5868 5867 5867 5866 5865 5865 5864 5864 5863 5862 5862 5862 5862 5862 5862 5863 5863 5863 5863 5864 5864 5865
5870 5872 5874 5875 5876 5876 5876 5876 5876 5876 5875 5875 5875 5874 5874 5873 5872 5872 5872 5872 5871 5870 5870 5869 5869 5868 5867 5867 5866 5866 5865 5864 5864 5863 5863 5862 5862 5861 5861 5861 5861 5861 5862 5862 5862 5862 5863 5863 5863
5867 5869 5870 5871 5872 5872 5872 5872 5873 5873 5873 5872 5872 5872 5872 5870 5870 5870 5870 5869 5869 5869 5868 5868 5867 5867 5866 5865 5865 5864 5864 5863 5862 5862 5862 5861 5861 5861 5860 5860 5860 5860 5860 5861 5861 5861 5861 5861 5861
5863 5865 5866 5867 5867 5867 5868 5868 5868 5869 5869 5867 5868 5869 5869 5869 5868 5867 5867 5866 5866 5867 5867 5866 5866 5865 5864 5864 5863 5863 5862 5862 5861 5860 5860 5860 5860 5860 5859 5859 5859 5859 5859 5859 5859 5860 5860 5860 5859
5859 5860 5861 5862 5863 5863 5864 5865 5865 5865 5866 5865 5865 5865 5865 5866 5866 5865 5865 5865 5865 5864 5864 5864 5864 5863 5862 5862 5861 5861 5861 5860 5859 5859 5859 5858 5859 5859 5858 5858 5858 5857 5857 5858 5858 5858 5858 5858 5857
5854 5855 5857 5858 5859 5859 5860 5861 5862 5862 5862 5863 5863 5862 5862 5863 5863 5863 5863 5863 5862 5862 5862 5862 5861 5861 5860 5859 5859 5859 5858 5858 5857 5857 5857 5857 5857 5857 5856 5856 5856 5856 5856 5856 5856 5856 5856 5856 5856
5849 5851 5853 5855 5855 5856 5858 5858 5858 5859 5859 5859 5860 5860 5859 5860 5860 5860 5860 5860 5860 5859 5859 5859 5859 5858 5858 5857 5856 5856 5856 5856 5855 5855 5855 5855 5855 5855 5854 5854 5854 5854 5854 5854 5854 5854 5854 5854 5855
5846 5848 5850 5852 5852 5853 5854 5854 5855 5855 5855 5856 5856 5856 5856 5856 5856 5856 5856 5856 5856 5856 5856 5856 5856 5856 5855 5855 5855 5854 5854 5854 5853 5852 5852 5852 5853 5852 5852 5852 5852 5852 5852 5852 5852 5852 5852 5853 5853
5843 5844 5846 5848 5849 5849 5850 5850 5851 5851 5852 5852 5852 5852 5852 5852 5852 5852 5853 5853 5853 5853 5853 5853 5853 5853 5853 5852 5852 5852 5852 5851 5851 5851 5851 5851 5850 5850 5850 5850 5850 5850 5850 5850 5850 5850 5850 5851 5851
5839 5840 5842 5844 5846 5846 5846 5847 5847 5847 5848 5848 5848 5848 5849 5848 5848 5849 5849 5850 5850 5850 5850 5850 5850 5850 5850 5850 5850 5849 5849 5849 5849 5849 5849 5848 5848 5848 5848 5848 5848 5848 5848 5848 5848 5848 5848 5848 5848
5834 5836 5838 5841 5841 5841 5842 5843 5844 5843 5843 5844 5844 5844 5844 5844 5844 5844 5845 5845 5846 5846 5847 5847 5847 5847 5847 5847 5847 5847 5847 5847 5846 5846 5846 5845 5845 5845 5845 5845 5845 5845 5845 5845 5845 5845 5845 5846 5846
5829 5832 5835 5836 5837 5837 5838 5839 5840 5840 5839 5840 5840 5840 5840 5839 5839 5840 5841 5841 5842 5842 5843 5843 5843 5843 5843 5843 5844 5844 5844 5844 5843 5843 5843 5843 5842 5842 5842 5842 5842 5842 5842 5842 5842 5842 5842 5842 5842
5825 5828 5829 5831 5833 5833 5835 5834 5836 5835 5835 5835 5836 5835 5834 5835 5835 5835 5835 5836 5837 5838 5838 5839 5839 5839 5839 5840 5841 5841 5841 5841 5841 5840 5840 5840 5840 5840 5839 5839 5839 5839 5839 5839 5839 5839 5839 5838 5838
5821 5823 5825 5826 5827 5829 5830 5830 5831 5830 5830 5830 5830 5830 5830 5830 5830 5831 5832 5832 5832 5833 5833 5834 5835 5836 5836 5836 5837 5838 5838 5838 5838 5837 5836 5836 5837 5837 5836 5836 5836 5836 5836 5835 5835 5835 5835 5834 5834
5816 5818 5819 5821 5822 5823 5825 5826 5826 5825 5825 5825 5826 5825 5825 5825 5826 5826 5827 5827 5827 5828 5829 5830 5831 5831 5832 5832 5833 5833 5834 5834 5834 5833 5833 5833 5833 5833 5833 5833 5833 5832 5832 5832 5831 5831 5830 5830 5830
5811 5813 5815 5816 5816 5818 5820 5821 5821 5821 5820 5820 5821 5821 5821 5821 5821 5822 5822 5822 5822 5823 5824 5825 5826 5827 5827 5828 5828 5829 5829 5829 5829 5829 5829 5829 5829 5829 5829 5829 5829 5829 5828 5828 5827 5827 5826 5826 5826
5806 5809 5811 5813 5814 5815 5816 5816 5816 5816 5816 5816 5816 5816 5816 5816 5816 5816 5817 5817 5818 5818 5819 5820 5821 5822 5822 5823 5823 5824 5824 5824 5824 5824 5824 5824 5824 5825 5825 5825 5825 5825 5824 5824 5823 5823 5823 5822 5822
5800 5803 5806 5809 5809 5810 5810 5810 5811 5811 5811 5811 5811 5811 5811 5810 5811 5811 5811 5812 5812 5813 5814 5815 5816 5817 5817 5818 5818 5819 5819 5819 5819 5819 5819 5819 5819 5820 5820 5820 5820 5820 5820 5820 5819 5819 5819 5818 5817
5796 5798 5801 5802 5803 5804 5805 5805 5805 5805 5805 5806 5806 5806 5805 5805 5806 5806 5806 5807 5807 5807 5809 5810 5811 5811 5812 5813 5813 5813 5813 5813 5813 5814 5814 5814 5815 5815 5815 5815 5815 5815 5815 5815 5815 5814 5814 5813 5813
5790 5792 5793 5795 5797 5799 5800 5802 5800 5798 5799 5800 5800 5800 5800 5801 5801 5801 5801 5802 5803 5804 5805 5805 5806 5806 5807 5807 5808 5808 5808 5808 5808 5808 5809 5809 5809 5809 5810 5810 5810 5810 5810 5809 5809 5809 5809 5808 5808
5784 5785 5788 5789 5791 5792 5793 5796 5793 5793 5793 5794 5794 5795 5796 5796 5796 5796 5796 5797 5798 5799 5800 5800 5801 5801 5802 5802 5802 5802 5803 5803 5803 5803 5803 5803 5803 5804 5804 5805 5805 5805 5804 5804 5804 5803 5803 5803 5802